Regional Weather Roundup
Issued by NWS Sterling, VA

Home | Current Version | Previous Version | Text Only | Print | Product List | Glossary On
Versions: 1 2 3 4 5 6 7 8 9 10 11 12 13 14 15 16 17 18 19 20 21 22 23 24 25 26 27 28 29 30 31 32 33 34 35 36 37 38 39 40 41 42 43 44 45 46 47 48 49 50
000
ASUS41 KLWX 230110
RWRLWX

REGIONAL WEATHER ROUNDUP
NATIONAL WEATHER SERVICE BALTIMORE MD/WASHINGTON DC
900 PM EDT WED MAR 22 2017

Note: "FAIR" indicates few or no clouds below 12,000 feet
with no significant weather and/or obstructions to visibility.
 TC=TEMPERATURE CELSIUS

 * =Non NWS site. Station does not report precipitation (e.g. rain,
    snow, etc.), thunder, or fog.

DCZ001-MDZ009-015-VAZ040>042-051-053>054-230200-
WASHINGTON METRO

CITY           SKY/WX    TMP DP  RH WIND       PRES   REMARKS
WASHINGTON NAT CLEAR     42   6  22 N14       30.43R
DULLES         CLEAR     39   5  24 N10       30.41R
ANDREWS AFB    CLEAR     38   5  25 N10       30.40R
FT BELVOIR     CLEAR     42   6  22 NW7       30.42R
QUANTICO       CLEAR     42   6  22 N12G22    30.43R
COLLEGE PARK*  CLEAR     37   3  23 NW3       30.42R
LEESBURG*      CLEAR     39  12  33 N8        30.43R
MANASSAS*      CLEAR     38   7  27 N10       30.43R
GAITHERSBURG*  CLEAR     34   3  27 N3        30.45R

$$

MDZ006>007-011-014-230200-
BALTIMORE METRO

CITY           SKY/WX    TMP DP  RH WIND       PRES   REMARKS
BWI AIRPORT    CLEAR     38   3  23 VRB6      30.41R
MD SCIENCE CTR   N/A     41   3  20 MISG      30.40R
MARTIN STATE   CLEAR     37   9  30 N8        30.43R
ANNAPOLIS      CLEAR     42  12  29 N6        30.41R
FORT MEADE*    CLEAR     36   5  27 CALM      30.44R

$$

MDZ012-015-019>023-230200-
MARYLAND EASTERN SHORE

CITY           SKY/WX    TMP DP  RH WIND       PRES   REMARKS
OCEAN CITY     CLEAR     37  11  34 N12       30.39R
SALISBURY      CLEAR     36   9  32 N10       30.39R WCI  28
BAY BRIDGE AP* CLEAR     39  10  30 NE8G17    30.42R
CAMBRIDGE*     CLEAR     39   9  28 N8        30.41R
EASTON*        CLEAR     37   7  28 NE7       30.44R

$$

MDZ017>025-230200-
SOUTHERN MARYLAND

CITY           SKY/WX    TMP DP  RH WIND       PRES   REMARKS
PATUXENT RIVER CLEAR     41  12  30 N13       30.40R
ST INIGOES     CLEAR     42   9  25 VRB5      30.39R
LEONARDTOWN*   CLEAR     37   9  30 N3        30.42R

$$

MDZ003>005-230200-
NORTH CENTRAL MARYLAND

CITY           SKY/WX    TMP DP  RH WIND       PRES   REMARKS
FREDERICK*     NOT AVBL
HAGERSTOWN APT CLEAR     34   8  33 NW9       30.41R WCI  27
WESTMINSTER*   CLEAR     36   5  27 N5        30.40R

$$

MDZ501>502-230200-
WESTERN MARYLAND

CITY           SKY/WX    TMP DP  RH WIND       PRES   REMARKS
OAKLAND*       CLEAR     25   3  39 NW6       30.34S
CUMBERLAND*    CLEAR     36   5  27 N6        30.48R

$$

VAZ025>031-230200-
SHENANDOAH VALLEY

CITY           SKY/WX    TMP DP  RH WIND       PRES   REMARKS
WINCHESTER*    CLEAR     36   5  27 NW6       30.41R
FRONT ROYAL*   CLEAR     37   7  28 CALM      30.40R
LURAY*         CLEAR     39  12  33 NW7       30.40R
NEW MARKET*    CLEAR     36   5  27 N3        30.40R
STAUNTON*      CLEAR     37  10  33 N6        30.40R
WAYNESBORO*    CLEAR     37  12  36 N6        30.37R

$$

WVZ021-048>050-054>055-230200-
EASTERN WEST VIRGINIA PANHANDLE

CITY           SKY/WX    TMP DP  RH WIND       PRES   REMARKS
MARTINSBURG    CLEAR     37   3  24 NW12      30.41R
PETERSBURG*    CLEAR     38   8  29 NW7       30.44R

$$

VAZ036>039-050-230200-
CENTRAL FOOTHILLS

CITY           SKY/WX    TMP DP  RH WIND       PRES   REMARKS
CHARLOTTESVILL CLEAR     44   7  21 N8        30.39R
CULPEPER*      CLEAR     40  10  29 N9        30.43R
ORANGE*        CLEAR     39   9  28 N7        30.41R
GORDONSVILLE*  CLEAR     39  14  35 CALM      30.40R
WARRENTON*     CLEAR     39   2  21 N7        30.42R

$$

VAZ055>057-230200-
NORTH AND CENTRAL PIEDMONT

CITY           SKY/WX    TMP DP  RH WIND       PRES   REMARKS
FREDERICKSBRG* CLEAR     43  12  28 N7        30.41R
STAFFORD*      CLEAR     39   6  25 N6        30.46R

$$

NCZ024-NYZ072-PAZ021-071-VAZ022-071-230200-
OTHER REGIONAL OBSERVATIONS

CITY           SKY/WX    TMP DP  RH WIND       PRES   REMARKS
NEW YORK CITY  CLEAR     28  -5  23 VRB5      30.40R
PHILADELPHIA   CLEAR     32  -2  23 N16G23    30.43R WCI  21
PITTSBURGH     PTCLDY    30   8  39 N12       30.47R WCI  20
ROANOKE        CLEAR     45  13  27 N10       30.37R
RICHMOND       CLEAR     44   9  23 N10       30.38R
RALEIGH        PTCLDY    47  13  25 E7        30.33R

$$

ANZ530>537-230200-
MARINE OBSERVATIONS

STATION/POSITION TIME  TEMP    WIND        PRES
                       AIR SEA DIR/SP/G
                 (UTC) (F)     (DEG/KT/KT) (MB)
THOMAS PT LIGHT  0000   42 44  360/ 18/ 21   N/A
BALT KEY BRIDGE  0030   41     360/ 11/ 13 1029.6R
COVE POINT       0030   43     360/ 19/ 24 1029.3R
LEWISETTA        0030   44 49   20/  8/ 12 1028.5R
PINEY POINT      0030           10/ 10/ 12   N/A

$$




USA.gov is the U.S. government's official web portal to all federal, state and local government web resources and services.